Location: Gand�
(15.0971°N, 12.6564°W)
Time: 15:26:01
(UTC+00:00)

ARIANE 44LP R/B - Pass Details

Date: 07 August 2020
Orbit: 291 x 27549 km, 6.8° (Epoch: 19 September)

Event Time Altitude Azimuth Distance (km) Brightness Sun altitude
Exits shadow 05:35:59 13° 179° (S) 985 3.4 -14.2°
Drops below altitude 10° 05:36:56 10° 150° (SSE) 1,117 4.0 -14.0°
Sets 05:39:27 0° 115° (ESE) 2,173 6.1 -13.4°
